PBO Station Position Time Series. Reference Frame : NAM14
Format Version,1.1.0
4-character ID,SATS
Station name,SATS_GPS
Begin Date, 1997-05-23
End Date, 2003-04-16
Release Date, 2019-08-30
Reference position, 46.9656531044 North Latitude, -123.5412291968 East Longitude, -7.67527 meters elevation,
Date, North (mm), East (mm), Vertical (mm), North Std. Deviation (mm), East Std. Deviation (mm),              Vertical Std. Deviation (mm), Quality,
1997-05-23,0.00, 0.00, 0.00, 2.82, 2.15, 9.30, repro,
1997-05-24,-0.71, -2.86, -6.49, 2.64, 2.06, 9.10, repro,
1997-05-25,8.00, 5.12, -17.64, 2.60, 1.93, 8.33, repro,
1997-05-26,5.18, 5.96, -22.25, 2.68, 1.94, 8.68, repro,
1997-05-27,-2.59, -6.42, 8.08, 2.77, 2.15, 9.50, repro,
1997-05-28,-3.73, -5.10, 1.40, 2.73, 2.05, 9.28, repro,
1997-05-29,-2.51, -3.20, 1.62, 2.69, 2.02, 8.85, repro,
1997-05-30,-0.43, -2.96, -6.46, 2.66, 1.99, 8.85, repro,
1997-05-31,0.05, 0.58, -7.39, 2.62, 1.92, 8.66, repro,
1997-06-01,-3.04, -1.92, -10.04, 2.66, 2.01, 9.02, repro,
1997-06-02,1.05, -0.70, -6.37, 2.66, 2.00, 8.96, repro,
1997-06-03,1.15, 2.84, -9.15, 9.04, 7.52, 28.47, repro,
1997-06-05,-0.47, -4.83, -13.78, 2.59, 1.97, 8.74, repro,
1997-06-06,-1.39, -4.66, -7.46, 2.58, 1.95, 8.73, repro,
1997-06-08,-1.99, -2.85, -8.28, 2.62, 2.02, 8.96, repro,
1997-06-09,-0.69, -5.40, -15.97, 2.74, 2.11, 9.33, repro,
1997-06-10,-0.82, -6.12, -0.20, 2.80, 2.26, 9.83, repro,
1997-06-11,-3.19, -4.45, -4.43, 2.71, 2.04, 9.13, repro,
1997-06-12,-1.30, -3.63, -9.08, 2.73, 2.05, 9.08, repro,
1997-06-13,0.24, -4.96, -9.63, 2.67, 2.03, 9.06, repro,
1997-06-15,-1.23, -2.88, -2.89, 2.67, 2.00, 8.97, repro,
1997-06-16,-0.82, -2.43, -5.28, 2.54, 1.92, 8.34, repro,
1997-06-17,7.92, 4.47, -9.35, 2.65, 1.99, 8.64, repro,
1997-06-18,9.00, 5.98, -22.98, 2.70, 2.04, 8.87, repro,
1997-06-19,2.88, 3.17, -17.48, 2.68, 2.01, 8.78, repro,
1997-06-20,0.95, 2.24, -5.74, 8.96, 8.86, 36.41, repro,
1997-06-21,0.72, -5.28, -7.38, 2.64, 2.08, 9.14, repro,
1997-06-22,-0.93, -2.72, -7.30, 2.78, 2.04, 9.24, repro,
1997-06-23,-2.38, -4.48, -7.70, 2.63, 1.94, 8.60, repro,
1997-06-24,2.94, 2.23, -22.80, 2.65, 2.00, 8.76, repro,
1997-06-25,-0.91, -6.75, -8.44, 2.74, 2.12, 9.41, repro,
1997-06-26,0.18, -9.00, 5.64, 2.68, 2.02, 8.95, repro,
1997-06-27,0.13, -5.40, -9.20, 2.70, 2.11, 9.27, repro,
1997-06-28,-3.67, -8.18, 6.58, 2.73, 2.11, 9.51, repro,
1997-06-29,0.02, -6.27, -4.70, 2.69, 2.01, 9.05, repro,
1997-06-30,-3.37, -10.63, 10.78, 2.67, 2.03, 9.16, repro,
1997-07-01,0.91, -3.71, -8.76, 2.71, 1.98, 8.93, repro,
1997-07-02,-3.74, -7.98, 2.38, 2.78, 2.16, 9.44, repro,
1997-07-03,-2.10, -11.89, 1.68, 2.70, 2.14, 9.63, repro,
1997-07-05,-1.11, -12.59, 7.19, 2.89, 2.08, 9.39, repro,
1997-07-06,-3.60, -14.07, 7.61, 2.72, 2.07, 9.29, repro,
1997-07-07,-2.43, -10.08, -1.83, 2.65, 2.02, 8.93, repro,
1997-07-08,-1.58, -10.30, 7.90, 2.68, 2.09, 9.34, repro,
1997-07-09,-0.73, -11.09, 0.86, 2.74, 2.03, 8.87, repro,
1997-07-10,1.52, -11.99, 0.49, 2.65, 1.98, 8.90, repro,
1997-07-11,-2.23, -10.36, -0.98, 2.64, 2.03, 9.08, repro,
1997-07-12,-1.96, -9.21, -3.81, 2.64, 1.98, 8.89, repro,
1997-07-13,-2.16, -11.16, 0.24, 2.55, 1.94, 8.56, repro,
1997-07-14,-1.24, -10.95, -3.58, 2.68, 1.98, 8.96, repro,
1997-07-15,-2.43, -10.44, -1.61, 2.66, 2.00, 9.08, repro,
1997-07-16,0.16, -10.85, -2.69, 2.70, 2.00, 9.04, repro,
1997-07-17,-0.54, -10.84, -0.59, 2.66, 1.98, 8.79, repro,
1997-07-18,-1.31, -13.58, -2.87, 2.60, 1.96, 8.74, repro,
1997-07-19,-0.34, -12.62, -5.06, 2.65, 2.00, 8.88, repro,
1997-07-20,-1.10, -10.07, -1.55, 2.63, 1.95, 8.68, repro,
1997-07-21,-0.55, -9.99, 5.11, 2.58, 1.97, 8.58, repro,
1997-07-22,-1.97, -10.84, -3.40, 2.68, 2.02, 9.09, repro,
1997-07-23,-1.03, -10.66, 10.54, 3.01, 2.16, 10.22, repro,
1997-07-24,-2.55, -11.41, 2.37, 2.70, 2.02, 9.03, repro,
1997-07-25,-2.87, -9.84, -2.96, 2.65, 1.97, 8.72, repro,
1997-07-26,-3.20, -10.41, 6.42, 2.69, 1.97, 8.77, repro,
1997-07-27,-4.38, -13.17, 7.85, 2.60, 1.98, 8.71, repro,
1997-07-28,-2.27, -10.12, 4.73, 2.59, 1.94, 8.51, repro,
1997-07-29,-1.51, -11.07, 2.85, 2.70, 1.96, 8.83, repro,
1997-07-30,-3.13, -9.60, 1.05, 2.68, 1.99, 8.81, repro,
1997-07-31,-1.97, -9.92, -1.59, 2.67, 2.05, 8.84, repro,
1997-08-01,-4.25, -12.03, -0.90, 2.61, 2.05, 8.84, repro,
1997-08-02,-2.35, -11.73, -0.90, 2.56, 1.96, 8.50, repro,
1997-08-03,-2.20, -8.42, -8.84, 2.60, 1.97, 8.55, repro,
1997-08-04,-4.43, -10.99, -2.10, 2.67, 1.98, 8.75, repro,
1997-08-05,-2.72, -10.18, -1.19, 2.59, 2.02, 8.71, repro,
1997-08-06,0.57, -10.89, -9.08, 2.60, 1.99, 8.50, repro,
1997-08-07,-1.98, -12.07, 2.75, 2.60, 1.97, 8.65, repro,
1997-08-08,-3.53, -10.16, 6.84, 2.69, 2.00, 8.80, repro,
1997-08-09,-0.37, -10.87, 4.80, 2.57, 1.92, 8.43, repro,
1997-08-10,-1.52, -10.99, -0.08, 2.58, 1.93, 8.39, repro,
1997-08-11,-0.94, -11.46, -6.62, 2.56, 1.94, 8.26, repro,
1997-08-12,-1.91, -12.51, 1.06, 2.66, 1.96, 8.68, repro,
1997-08-13,-2.73, -11.14, 4.77, 2.68, 2.01, 8.78, repro,
1997-08-14,-1.50, -10.33, 7.67, 2.56, 1.90, 8.33, repro,
1997-08-15,-4.84, -9.44, 10.68, 2.65, 1.99, 8.47, repro,
1997-08-16,-1.32, -11.38, 1.35, 2.60, 1.96, 8.48, repro,
1997-08-17,-2.15, -13.71, 3.77, 2.66, 2.00, 8.78, repro,
1997-08-18,-2.64, -10.93, -1.84, 2.59, 2.01, 8.56, repro,
1997-08-20,-5.11, -11.00, 5.23, 2.63, 2.01, 8.80, repro,
1997-08-21,-3.79, -12.40, 1.60, 2.58, 1.96, 8.45, repro,
1997-08-22,-2.26, -11.53, 3.27, 2.64, 1.96, 8.76, repro,
1997-08-23,-2.34, -12.12, 8.97, 2.64, 1.93, 8.62, repro,
1997-08-24,-3.82, -10.98, 8.57, 2.65, 1.99, 8.55, repro,
1997-08-25,-5.20, -9.89, 3.38, 2.67, 1.96, 8.68, repro,
1997-08-26,-4.01, -11.76, 3.25, 2.54, 1.93, 8.47, repro,
1997-08-27,-6.53, -9.04, 6.64, 2.71, 1.99, 8.94, repro,
1997-08-28,-3.00, -9.86, -1.18, 2.61, 1.95, 8.60, repro,
1997-08-29,-0.29, -10.54, -0.73, 2.64, 1.92, 8.53, repro,
1997-08-30,-3.34, -12.85, 12.53, 2.56, 2.01, 8.76, repro,
1997-09-01,-3.55, -11.77, 8.04, 2.58, 2.00, 8.67, repro,
1997-09-02,-1.65, -9.58, -4.64, 2.59, 1.94, 8.49, repro,
1997-09-03,-1.40, -10.10, 13.71, 2.65, 2.03, 8.67, repro,
1997-09-04,-1.71, -8.83, 7.40, 2.73, 2.06, 8.79, repro,
1997-09-05,-3.95, -12.81, 12.76, 2.69, 2.08, 8.93, repro,
1997-09-06,-17.90, -10.01, -72.22, 125.05, 138.31, 463.67, repro,
1997-09-07,-0.88, -10.71, 6.53, 2.59, 1.98, 8.57, repro,
1997-09-08,-1.32, -12.43, 9.99, 2.62, 2.10, 9.11, repro,
1997-09-09,-2.50, -13.15, 16.84, 2.61, 2.05, 9.08, repro,
1997-09-10,-2.54, -12.74, -3.45, 2.58, 1.98, 8.82, repro,
1997-09-11,-3.91, -11.39, 5.78, 2.64, 1.99, 8.92, repro,
1997-09-13,-3.29, -11.60, 4.26, 2.58, 1.95, 8.59, repro,
1997-09-14,-1.01, -9.73, 7.20, 2.56, 1.96, 8.58, repro,
1997-09-15,-1.32, -8.64, 3.01, 2.76, 2.10, 9.17, repro,
1997-09-16,-4.15, -11.22, -0.91, 2.56, 1.90, 8.44, repro,
1997-09-17,-5.78, -11.34, 11.89, 2.56, 1.95, 8.60, repro,
1997-09-18,-2.14, -11.35, -9.58, 2.58, 1.98, 8.56, repro,
1997-09-19,-0.25, -9.12, -3.84, 2.56, 1.95, 8.43, repro,
1997-09-21,-0.71, -11.73, -2.65, 2.63, 2.00, 8.81, repro,
1997-09-22,-0.69, -10.62, 0.92, 2.64, 2.07, 9.23, repro,
1997-09-23,-0.43, -11.97, 7.69, 2.74, 2.09, 9.18, repro,
1997-09-24,0.02, -10.65, 0.15, 2.56, 1.99, 8.57, repro,
1997-09-25,-4.30, -13.40, 14.39, 2.69, 2.17, 9.55, repro,
1997-09-26,-0.92, -8.44, 2.41, 2.66, 2.05, 8.92, repro,
1997-09-27,-6.14, -12.68, 11.71, 2.69, 2.08, 9.21, repro,
1997-09-29,-0.52, -8.59, -1.87, 2.79, 2.15, 9.10, repro,
1997-09-30,0.42, -10.92, 10.54, 2.61, 1.99, 8.56, repro,
1997-10-01,-2.81, -9.68, 23.91, 2.66, 2.05, 8.93, repro,
1997-10-02,-1.38, -8.50, 13.24, 2.59, 2.00, 8.65, repro,
1997-10-03,-3.71, -13.19, 24.13, 2.63, 1.97, 8.70, repro,
1997-10-04,-3.79, -8.97, 4.05, 2.72, 2.04, 9.00, repro,
1997-10-05,-4.67, -11.99, 19.29, 2.63, 2.03, 8.84, repro,
1997-10-06,4.29, -3.37, 1.01, 2.51, 1.90, 8.22, repro,
1997-10-07,-0.31, -12.10, 13.85, 2.67, 2.03, 9.13, repro,
1997-10-08,-3.65, -10.37, 6.25, 2.57, 1.96, 8.56, repro,
1997-10-10,-2.76, -10.73, -4.38, 2.67, 2.03, 8.99, repro,
1997-10-11,7.51, 0.76, 0.63, 2.76, 2.08, 8.62, repro,
1997-10-12,-3.78, -11.69, 2.06, 2.54, 1.92, 8.26, repro,
1997-10-13,-0.83, -9.01, -5.08, 2.66, 1.99, 8.59, repro,
1997-10-14,-2.66, -10.80, -6.37, 2.66, 2.01, 8.83, repro,
1997-10-15,-2.02, -8.99, -2.53, 2.74, 2.05, 9.09, repro,
1997-10-16,0.01, -11.31, -2.99, 2.69, 2.05, 9.09, repro,
1997-10-17,-1.86, -12.62, 12.03, 2.80, 2.15, 9.41, repro,
1997-10-18,0.86, -10.50, -6.07, 2.68, 2.02, 8.75, repro,
1997-10-19,2.25, -10.02, -9.02, 2.66, 2.07, 8.94, repro,
1997-10-20,0.53, -11.82, 1.98, 2.75, 2.01, 8.85, repro,
1997-10-21,-0.16, -10.59, 0.90, 2.75, 2.01, 8.96, repro,
1997-10-22,0.32, -8.69, -1.42, 2.62, 2.00, 8.72, repro,
1997-10-23,-1.64, -9.83, 0.67, 2.72, 2.00, 8.71, repro,
1997-10-24,-1.45, -11.04, 1.17, 2.68, 1.96, 8.71, repro,
1997-10-25,2.13, -9.66, -17.25, 2.76, 1.97, 8.77, repro,
1997-10-27,-2.18, -14.07, 1.63, 2.71, 2.03, 9.06, repro,
1997-10-28,0.93, -12.61, -5.67, 2.83, 2.04, 9.15, repro,
1997-10-29,-2.98, -11.30, 17.09, 2.86, 2.11, 9.79, repro,
1997-10-30,-2.91, -12.67, -1.04, 2.74, 1.98, 8.89, repro,
1997-11-01,-2.54, -9.66, 0.66, 2.84, 2.12, 9.19, repro,
1997-11-02,-2.74, -12.03, -1.88, 2.70, 2.09, 9.53, repro,
1997-11-03,-1.20, -11.19, -4.99, 2.87, 2.21, 9.77, repro,
1997-11-04,1.84, -11.42, -9.58, 2.80, 2.13, 9.20, repro,
1997-11-07,-1.22, -9.84, -5.42, 2.95, 2.20, 9.62, repro,
1997-11-08,-0.46, -9.36, -5.47, 2.61, 1.99, 8.63, repro,
1997-11-09,0.66, -9.06, -3.27, 2.88, 2.27, 9.49, repro,
1997-11-11,-2.03, -8.51, 10.42, 3.75, 3.08, 12.88, repro,
1997-11-16,1.91, -11.08, -8.76, 2.82, 2.10, 9.24, repro,
1997-11-17,-4.07, -6.13, 4.33, 2.77, 2.22, 9.88, repro,
1997-11-18,-1.21, -10.98, 15.10, 2.69, 2.09, 9.41, repro,
1997-11-19,1.67, -7.74, 13.60, 3.01, 2.30, 10.00, repro,
1997-11-21,2.27, -8.00, -5.22, 3.35, 2.47, 10.75, repro,
1997-11-22,-2.25, -9.05, 5.99, 2.95, 2.15, 9.76, repro,
1997-11-23,1.56, -12.29, 21.04, 2.96, 2.16, 9.79, repro,
1997-11-24,-3.27, -12.05, 13.74, 2.72, 2.04, 9.20, repro,
1997-11-25,-4.17, -6.61, 13.20, 2.81, 2.21, 9.74, repro,
1997-11-26,0.53, -10.31, 4.29, 2.85, 2.15, 9.74, repro,
1997-11-27,1.40, -11.07, 7.23, 2.70, 2.15, 9.27, repro,
1997-11-28,-2.30, -7.74, 2.32, 2.73, 2.03, 9.25, repro,
1997-11-29,-1.54, -7.67, -2.38, 2.74, 2.03, 8.93, repro,
1997-12-01,-0.12, -8.94, 0.99, 2.89, 2.16, 9.87, repro,
1997-12-02,0.87, -7.12, 0.14, 2.62, 2.00, 8.75, repro,
1997-12-03,1.14, -7.57, -9.75, 2.87, 2.09, 9.53, repro,
1997-12-05,0.70, -9.14, 0.38, 2.77, 2.05, 9.28, repro,
1997-12-06,-1.03, -7.98, -6.69, 2.87, 2.15, 9.46, repro,
1997-12-07,0.31, -12.89, 3.90, 2.63, 2.12, 8.84, repro,
1997-12-08,-1.34, -9.92, 8.00, 2.86, 2.18, 9.71, repro,
1997-12-10,0.22, -7.52, -6.34, 2.83, 2.03, 9.30, repro,
1997-12-11,-0.76, -9.54, -14.28, 2.67, 2.06, 8.94, repro,
1997-12-12,-0.53, -7.24, -8.80, 2.66, 2.07, 8.83, repro,
1997-12-13,1.86, -8.18, -7.21, 2.66, 1.99, 8.87, repro,
1997-12-14,-3.40, -9.02, 1.89, 2.61, 1.99, 8.74, repro,
1997-12-15,-0.24, -10.44, 3.41, 2.89, 2.11, 9.44, repro,
1997-12-16,-0.08, -7.64, 1.40, 2.76, 2.08, 9.02, repro,
1997-12-17,0.24, -9.82, 4.69, 2.76, 2.07, 9.06, repro,
1997-12-19,-1.29, -6.43, -7.06, 2.78, 2.23, 9.23, repro,
1997-12-21,-0.40, -8.95, -7.55, 2.55, 2.01, 8.49, repro,
1997-12-22,-0.36, -11.81, -15.66, 3.47, 2.75, 12.45, repro,
1997-12-24,1.23, -11.07, -8.45, 2.62, 2.04, 8.58, repro,
1997-12-25,-2.04, -9.15, -1.48, 5.54, 3.82, 18.42, repro,
1997-12-26,3.17, -8.45, -6.54, 2.65, 1.98, 8.48, repro,
1997-12-28,-0.97, -9.55, -8.68, 2.83, 2.30, 9.42, repro,
1997-12-30,1.43, -7.11, -10.43, 2.80, 2.25, 9.43, repro,
1997-12-31,2.79, -8.94, -6.41, 2.57, 2.02, 8.47, repro,
1998-01-01,0.11, -9.34, -4.40, 2.64, 2.03, 8.67, repro,
1998-01-02,-3.33, -10.44, -6.22, 2.73, 2.21, 9.47, repro,
1998-01-03,0.63, -11.09, -11.91, 2.56, 1.93, 8.54, repro,
1998-01-04,1.57, -9.27, -9.22, 2.51, 1.95, 8.30, repro,
1998-01-05,-1.11, -8.14, -17.59, 2.67, 2.12, 9.06, repro,
1998-01-06,-1.95, -9.26, -7.69, 2.73, 2.19, 9.47, repro,
1998-01-07,1.60, -8.43, -13.78, 2.76, 2.25, 9.51, repro,
1998-01-08,-0.39, -11.32, -14.23, 2.85, 2.26, 9.79, repro,
1998-01-09,-0.71, -8.19, -9.47, 2.58, 2.08, 8.80, repro,
1998-01-10,-0.08, -6.93, -14.34, 2.61, 2.01, 8.58, repro,
1998-01-11,2.84, -13.74, -10.57, 2.64, 2.09, 8.75, repro,
1998-01-12,15.95, -18.34, -18.13, 2.78, 2.26, 9.27, repro,
1998-01-14,-0.79, -9.39, -9.14, 2.56, 1.97, 8.60, repro,
1998-01-15,0.61, -7.50, -8.38, 2.68, 2.07, 8.87, repro,
1998-01-16,-0.58, -7.17, -7.88, 2.77, 2.20, 9.33, repro,
1998-01-17,-1.98, -9.05, -0.50, 2.60, 2.01, 8.64, repro,
1998-01-21,1.45, -7.52, -13.64, 2.70, 2.02, 8.72, repro,
1998-01-22,1.42, -8.40, -5.46, 2.71, 2.05, 9.16, repro,
1998-01-23,-0.69, -7.79, -4.00, 2.81, 2.17, 9.31, repro,
1998-01-24,-0.62, -7.42, -1.53, 2.72, 2.20, 9.04, repro,
1998-01-25,-2.70, -7.17, 6.65, 2.61, 1.96, 8.56, repro,
1998-01-26,1.27, -7.33, -16.22, 2.60, 1.92, 8.50, repro,
1998-01-27,2.35, -7.14, -14.32, 2.71, 2.09, 8.96, repro,
1998-01-28,0.09, -7.37, -2.99, 2.63, 2.02, 8.68, repro,
1998-01-29,-1.43, -6.71, -9.88, 2.59, 2.01, 8.57, repro,
1998-01-30,-0.28, -5.38, -26.42, 2.90, 2.30, 10.24, repro,
1998-02-05,-0.86, -9.30, -26.11, 6.48, 5.11, 21.88, repro,
1998-02-06,-1.47, -7.37, -15.29, 2.48, 1.93, 8.29, repro,
1998-02-07,-0.49, -6.45, -20.82, 2.52, 1.90, 8.22, repro,
1998-02-08,-0.54, -7.83, -24.39, 2.59, 2.04, 8.85, repro,
1998-02-09,-4.72, -8.50, -17.15, 2.62, 1.99, 8.69, repro,
1998-02-10,-2.08, -6.41, -23.49, 2.55, 1.94, 8.45, repro,
1998-02-11,-2.61, -8.23, -34.02, 2.64, 2.00, 8.79, repro,
1998-02-12,-1.98, -7.35, -14.37, 2.56, 1.90, 8.36, repro,
1998-02-13,-1.59, -6.09, -19.05, 2.56, 1.91, 8.41, repro,
1998-02-14,-1.94, -7.17, -13.66, 2.54, 1.96, 8.54, repro,
1998-02-15,-1.70, -7.40, -10.37, 2.57, 1.99, 8.64, repro,
1998-02-16,0.32, -5.75, -18.87, 2.55, 2.01, 8.63, repro,
1998-02-17,-1.59, -6.23, -8.89, 2.78, 2.02, 8.96, repro,
1998-02-18,-6.71, -6.79, -15.43, 2.81, 2.27, 9.65, repro,
1998-02-19,-1.90, -8.93, -10.56, 2.55, 1.98, 8.62, repro,
1998-02-20,-0.66, -6.70, -15.60, 2.69, 2.07, 8.95, repro,
1998-02-21,-3.15, -8.81, -13.07, 2.57, 1.95, 8.54, repro,
1998-02-22,-4.29, -9.61, -17.99, 2.62, 2.00, 8.64, repro,
1998-02-23,-4.32, -7.73, -21.37, 2.44, 1.85, 8.06, repro,
1998-02-24,0.08, -7.77, -19.30, 2.49, 1.91, 8.22, repro,
1998-02-25,1.75, -7.75, -10.95, 2.52, 1.93, 8.45, repro,
1998-02-26,-2.81, -6.95, -21.40, 2.51, 1.96, 8.48, repro,
1998-02-27,-1.54, -6.85, -21.55, 2.52, 2.01, 8.77, repro,
1998-02-28,-0.55, -5.97, -24.08, 2.61, 2.00, 8.84, repro,
1998-03-01,-2.51, -6.09, -38.34, 2.57, 1.99, 8.62, repro,
1998-03-02,-0.19, -7.23, -18.23, 2.52, 1.97, 8.56, repro,
1998-03-03,1.47, -6.65, -17.24, 2.59, 2.03, 8.69, repro,
1998-03-04,-2.06, -6.87, -24.62, 2.45, 1.88, 8.12, repro,
1998-03-06,-1.30, -6.90, -20.87, 2.46, 1.89, 8.19, repro,
1998-03-07,-0.43, -7.56, -19.57, 2.51, 1.97, 8.49, repro,
1998-03-08,-1.02, -7.08, -29.61, 2.53, 1.95, 8.47, repro,
1998-03-09,-1.20, -5.23, -27.58, 2.49, 1.89, 8.17, repro,
1998-03-10,0.37, -6.20, -28.03, 2.62, 2.05, 8.87, repro,
1998-03-11,-2.62, -7.11, -24.86, 2.59, 2.02, 8.66, repro,
1998-03-12,-1.64, -5.78, -27.19, 2.50, 1.95, 8.37, repro,
1998-03-13,-2.00, -6.40, -25.88, 2.54, 1.99, 8.55, repro,
1998-03-14,0.36, -4.66, -27.08, 2.55, 1.98, 8.51, repro,
1998-03-15,-1.10, -6.38, -26.64, 2.54, 1.97, 8.50, repro,
1998-03-16,0.56, -6.28, -18.13, 2.52, 2.01, 8.64, repro,
1998-03-17,-1.65, -4.48, -28.96, 2.45, 1.90, 8.23, repro,
1998-03-18,-0.45, -4.63, -24.43, 2.57, 2.00, 8.59, repro,
1998-03-19,-0.64, -3.28, -13.97, 3.60, 2.86, 12.73, repro,
1998-03-20,-0.58, -4.82, -21.09, 2.53, 1.97, 8.53, repro,
1998-03-21,-1.12, -7.97, -11.69, 2.47, 1.90, 8.34, repro,
1998-03-22,-2.18, -5.91, -22.13, 2.48, 1.94, 8.46, repro,
1998-03-23,0.21, -5.42, -11.50, 2.50, 1.98, 8.52, repro,
1998-03-24,-0.08, -5.53, -10.84, 2.58, 2.01, 8.66, repro,
1998-03-25,-3.12, -7.38, -16.66, 2.47, 1.90, 8.25, repro,
1998-03-26,-1.01, -6.68, -16.75, 2.48, 1.86, 8.09, repro,
1998-03-27,-0.93, -7.29, -13.94, 2.53, 1.93, 8.34, repro,
1998-03-28,-1.55, -5.27, -13.57, 2.50, 1.89, 8.11, repro,
1998-03-29,-0.92, -5.26, -22.89, 2.50, 1.92, 8.33, repro,
1998-03-30,1.06, -5.48, -16.04, 2.60, 1.99, 8.64, repro,
1998-03-31,-0.58, -7.12, -18.58, 2.76, 2.16, 9.59, repro,
1998-04-01,-1.96, -7.75, -20.43, 2.52, 1.96, 8.58, repro,
1998-04-02,-1.47, -6.23, -13.93, 2.52, 1.98, 8.45, repro,
1998-04-03,0.28, -4.90, -24.24, 2.47, 1.91, 8.20, repro,
1998-04-04,-3.70, -5.54, -13.19, 2.54, 1.97, 8.56, repro,
1998-04-05,-3.29, -7.05, -15.80, 2.56, 1.94, 8.54, repro,
1998-04-06,-1.84, -5.02, -22.43, 2.68, 2.09, 8.86, repro,
1998-04-07,0.55, -5.91, -18.57, 2.89, 2.30, 9.52, repro,
1998-04-08,-2.19, -6.26, -23.24, 2.60, 2.04, 8.71, repro,
1998-04-09,0.99, -4.67, -31.47, 2.52, 1.94, 8.36, repro,
1998-04-10,-0.81, -7.93, -18.43, 2.64, 2.00, 8.72, repro,
1998-04-11,1.43, -11.13, -11.65, 2.79, 2.17, 9.41, repro,
1998-04-12,-1.13, -7.08, -11.70, 2.55, 2.03, 8.64, repro,
1998-04-13,-1.36, -6.78, -20.68, 2.52, 1.97, 8.43, repro,
1998-04-14,0.37, -4.83, -31.26, 2.44, 1.90, 8.24, repro,
1998-04-15,1.92, -6.56, -19.87, 2.55, 1.97, 8.58, repro,
1998-04-16,-0.57, -5.83, -20.50, 2.56, 1.96, 8.56, repro,
1998-04-17,-1.97, -5.09, -18.96, 2.54, 2.00, 8.59, repro,
1998-04-18,1.33, -7.42, -19.65, 2.49, 1.96, 8.59, repro,
1998-04-19,-0.74, -6.64, -23.96, 2.45, 1.94, 8.41, repro,
1998-04-20,1.42, -5.33, -24.27, 2.39, 1.87, 8.08, repro,
1998-04-21,-0.75, -7.23, -18.49, 2.61, 2.04, 8.89, repro,
1998-04-22,-0.86, -5.22, -21.27, 2.50, 2.00, 8.51, repro,
1998-04-23,0.64, -5.99, -10.27, 2.43, 1.91, 8.36, repro,
1998-04-25,-0.18, -6.24, -21.75, 2.39, 1.88, 8.09, repro,
1998-04-26,-1.07, -7.19, -15.97, 2.42, 1.87, 8.19, repro,
1998-04-27,-0.82, -6.51, -16.36, 2.40, 1.88, 8.26, repro,
1998-04-28,-1.32, -6.17, 11.10, 7.89, 6.01, 26.28, repro,
1998-04-29,0.32, -7.08, -10.40, 2.52, 1.98, 8.67, repro,
1998-04-30,2.60, -6.06, -12.27, 2.48, 2.07, 9.05, repro,
1998-05-02,0.11, -6.10, -5.65, 2.49, 1.91, 8.38, repro,
1998-05-03,-0.62, -4.93, -6.82, 2.49, 1.92, 8.42, repro,
1998-05-04,1.05, -7.63, -7.90, 2.59, 2.03, 8.95, repro,
1998-05-05,1.28, -6.47, -11.73, 2.43, 1.87, 8.19, repro,
1998-05-07,-0.20, -7.25, -7.74, 2.44, 1.91, 8.42, repro,
1998-05-08,-0.58, -6.47, -6.72, 2.47, 1.91, 8.40, repro,
1998-05-09,0.55, -7.71, -6.64, 2.43, 1.89, 8.31, repro,
1998-05-10,-0.65, -6.50, -5.43, 2.40, 1.90, 8.32, repro,
1998-05-11,-0.25, -6.80, -12.15, 2.53, 2.00, 8.58, repro,
1998-05-12,-0.08, -6.34, 0.20, 2.38, 1.87, 8.22, repro,
1998-05-13,-0.54, -7.94, -6.55, 2.42, 1.90, 8.15, repro,
1998-05-14,-0.55, -6.78, -0.18, 2.43, 1.86, 8.11, repro,
1998-05-15,-1.81, -6.50, -7.98, 2.42, 1.84, 8.16, repro,
1998-05-16,-0.32, -7.22, -6.57, 2.42, 1.89, 8.32, repro,
1998-05-17,-0.28, -8.01, -4.85, 2.50, 1.98, 8.78, repro,
1998-05-18,0.40, -6.63, -11.78, 2.49, 1.96, 8.65, repro,
1998-05-19,2.80, -5.41, -12.96, 2.43, 1.92, 8.36, repro,
1998-05-20,1.23, -6.43, -6.43, 2.45, 1.90, 8.32, repro,
1998-05-21,3.23, -4.76, -11.78, 2.54, 1.94, 8.54, repro,
1998-05-22,-0.38, -3.47, -12.90, 2.46, 1.93, 8.40, repro,
1998-05-23,1.07, -4.52, -12.78, 2.57, 2.04, 8.78, repro,
1998-05-24,-1.33, -5.84, -14.66, 2.46, 1.97, 8.55, repro,
1998-05-25,-0.11, -6.78, -11.76, 2.43, 1.93, 8.43, repro,
1998-05-26,-0.20, -7.10, -13.74, 2.48, 1.97, 8.40, repro,
1998-05-27,-0.50, -6.99, -4.94, 2.54, 1.96, 8.71, repro,
1998-05-28,-0.76, -5.92, -9.71, 2.47, 1.99, 8.74, repro,
1998-05-29,0.47, -5.68, -14.14, 2.52, 1.98, 8.63, repro,
1998-05-30,0.27, -4.82, -16.92, 2.52, 1.92, 8.49, repro,
1998-05-31,1.63, -5.01, -18.67, 2.44, 1.95, 8.46, repro,
1998-06-01,2.39, -4.27, -11.19, 2.44, 1.93, 8.32, repro,
1998-06-02,1.44, -3.43, -13.84, 2.39, 1.85, 8.03, repro,
1998-06-03,2.09, -2.94, -12.73, 2.46, 1.97, 8.46, repro,
1998-06-04,2.04, -3.51, -17.32, 2.43, 1.91, 8.26, repro,
1998-06-05,0.37, -4.79, -14.69, 2.55, 2.06, 8.89, repro,
1998-06-06,-0.44, -7.95, -5.68, 2.45, 1.96, 8.49, repro,
1998-06-07,1.05, -6.01, -3.37, 2.44, 1.95, 8.49, repro,
1998-06-08,-0.19, -5.42, -2.76, 2.44, 1.93, 8.45, repro,
1998-06-09,-0.75, -3.76, -9.03, 2.44, 1.93, 8.47, repro,
1998-06-10,-2.28, -5.59, 2.60, 2.49, 1.95, 8.34, repro,
1998-06-11,-1.75, -6.21, -4.67, 2.50, 1.97, 8.65, repro,
1998-06-12,-1.62, -6.87, 3.47, 2.47, 1.96, 8.54, repro,
1998-06-13,-0.09, -3.88, -9.38, 2.44, 1.89, 8.20, repro,
1998-06-14,-1.53, -4.44, -12.08, 2.46, 1.93, 8.39, repro,
1998-06-15,-3.31, -7.66, -0.12, 2.54, 2.04, 8.83, repro,
1998-06-16,-0.14, -5.70, -6.48, 2.51, 2.03, 8.77, repro,
1998-06-17,-0.99, -4.86, -12.14, 2.44, 1.95, 8.43, repro,
1998-06-18,-1.63, -4.22, -11.18, 2.41, 1.86, 8.08, repro,
1998-06-19,-0.27, -4.54, -16.29, 2.47, 1.94, 8.35, repro,
1998-06-20,0.60, -5.91, -9.03, 2.48, 1.94, 8.51, repro,
1998-06-21,-0.29, -3.49, -7.63, 2.49, 1.98, 8.58, repro,
1998-06-22,0.77, -6.24, -6.37, 2.48, 1.92, 8.50, repro,
1998-06-24,-2.92, -4.81, -5.35, 2.54, 2.03, 8.92, repro,
1998-06-25,-1.69, -7.63, -6.04, 2.57, 1.95, 8.64, repro,
1998-06-26,-2.12, -6.10, -2.63, 2.54, 2.05, 8.85, repro,
1998-06-27,-0.07, -5.11, -8.09, 2.51, 2.02, 8.64, repro,
1998-06-28,1.27, -7.77, -6.47, 2.49, 2.00, 8.70, repro,
1998-06-29,1.26, -4.44, -16.62, 2.53, 2.00, 8.64, repro,
1998-06-30,-2.12, -4.84, -19.32, 2.47, 1.91, 8.39, repro,
1998-07-01,0.34, -4.87, -7.12, 2.57, 2.02, 8.95, repro,
1998-07-02,-1.02, -4.64, -1.16, 2.41, 1.87, 8.09, repro,
1998-07-03,-3.03, -5.75, -1.34, 2.47, 1.93, 8.58, repro,
1998-07-04,-1.55, -4.68, -0.83, 2.52, 2.05, 9.00, repro,
1998-07-05,-1.87, -5.98, -13.21, 2.47, 1.90, 8.35, repro,
1998-07-06,-1.47, -6.55, -1.41, 2.57, 2.03, 9.07, repro,
1998-07-07,0.96, -4.86, -14.00, 2.54, 1.99, 8.79, repro,
1998-07-08,-0.10, -5.90, -6.55, 2.62, 2.08, 9.15, repro,
1998-07-09,-0.48, -5.54, -6.91, 2.55, 2.06, 9.02, repro,
1998-07-10,-0.17, -6.76, -14.28, 2.68, 2.18, 9.74, repro,
1998-07-11,0.05, -6.04, -10.28, 2.47, 1.88, 8.35, repro,
1998-07-12,0.31, -4.82, -14.45, 2.51, 2.00, 8.80, repro,
1998-07-13,-1.70, -6.07, -4.13, 2.45, 2.06, 9.06, repro,
1998-07-14,-1.12, -6.36, -3.02, 2.48, 1.94, 8.54, repro,
1998-07-15,-4.06, -5.65, 3.83, 2.50, 1.96, 8.71, repro,
1998-07-16,-3.92, -4.88, -12.33, 2.47, 1.95, 8.58, repro,
1998-07-17,-2.92, -5.16, -5.60, 2.52, 1.96, 8.60, repro,
1998-07-18,-2.26, -5.08, -5.75, 2.44, 1.92, 8.40, repro,
1998-07-19,-2.37, -3.77, -2.64, 2.49, 1.96, 8.66, repro,
1998-07-20,-0.71, -6.29, -8.19, 2.57, 2.07, 9.32, repro,
1998-07-21,-1.82, -7.72, -4.79, 2.54, 2.11, 9.41, repro,
1998-07-22,-2.64, -7.14, 1.65, 2.69, 2.14, 9.44, repro,
1998-07-23,-1.61, -5.27, 2.95, 2.64, 2.05, 9.04, repro,
1998-07-24,-3.22, -6.39, 3.33, 2.51, 2.03, 8.95, repro,
1998-07-25,-2.27, -7.28, -7.03, 2.51, 2.02, 8.93, repro,
1998-07-26,4.39, -0.19, -29.45, 2.46, 1.91, 8.34, repro,
1998-07-27,-1.51, -9.32, -4.68, 2.58, 2.04, 9.22, repro,
1998-07-28,-1.31, -6.40, -14.23, 2.52, 2.02, 8.98, repro,
1998-07-29,-2.89, -8.71, -9.79, 2.45, 1.94, 8.52, repro,
1998-07-30,-4.76, -9.09, 4.58, 2.51, 2.01, 8.78, repro,
1998-07-31,-2.91, -8.72, -8.86, 2.55, 2.05, 9.02, repro,
1998-08-01,-3.57, -11.76, 1.57, 2.53, 2.04, 9.02, repro,
1998-08-02,-4.02, -9.14, -11.18, 2.54, 2.05, 9.20, repro,
1998-08-03,-3.50, -9.13, -7.47, 2.47, 2.01, 8.80, repro,
1998-08-04,-1.89, -9.53, 0.30, 2.78, 2.27, 9.98, repro,
1998-08-05,-3.92, -9.08, -10.43, 2.51, 1.97, 8.83, repro,
1998-08-06,-3.93, -11.08, 7.68, 2.51, 2.03, 8.87, repro,
1998-08-07,-0.77, -10.03, -6.45, 2.51, 2.00, 8.63, repro,
1998-08-08,-3.62, -11.07, 5.32, 2.43, 1.93, 8.39, repro,
1998-08-09,-2.42, -6.97, -6.24, 2.49, 1.95, 8.50, repro,
1998-08-10,-3.65, -7.28, -5.19, 2.48, 1.95, 8.50, repro,
1998-08-11,-3.89, -8.51, -5.06, 2.49, 2.02, 8.51, repro,
1998-08-12,-4.43, -8.61, -2.75, 2.45, 1.96, 8.59, repro,
1998-08-13,-1.52, -9.52, -13.39, 2.47, 1.94, 8.69, repro,
1998-08-14,-4.73, -10.75, 0.50, 2.47, 1.91, 8.37, repro,
1998-08-15,-3.86, -8.94, 5.94, 2.49, 1.97, 8.39, repro,
1998-08-16,-0.92, -8.76, -17.81, 2.58, 2.08, 9.02, repro,
1998-08-17,-2.38, -9.42, -12.92, 2.39, 1.88, 8.06, repro,
1998-08-18,-3.04, -6.98, -6.82, 2.50, 2.10, 8.96, repro,
1998-08-19,-5.45, -7.36, -1.14, 2.52, 1.98, 8.66, repro,